owner,sensor,date,latitude,longitude,vertical_datum,direction_of_sea_water_velocity,sea_water_speed,upward_sea_water_velocity,qcFlag 
TABS,ioos:station:wmo:42048:1,2004-09-01T00:00:00Z,27.9396,-96.8429,2.0,233.4647667,22.57638589,-99999.0,'11111222,11111222,99999999' 
TABS,ioos:station:wmo:42048:1,2004-09-01T00:30:00Z,27.9396,-96.8429,2.0,239.8753315,18.72965563,-99999.0,'11111222,11111222,99999999' 
TABS,ioos:station:wmo:42048:1,2004-09-01T01:00:00Z,27.9396,-96.8429,2.0,226.495544,18.41933766,-99999.0,'11111222,11111222,99999999' 
TABS,ioos:station:wmo:42048:1,2004-09-01T01:30:00Z,27.9396,-96.8429,2.0,244.8560629,17.48696086,-99999.0,'11111222,11111222,99999999' 
TABS,ioos:station:wmo:42048:1,2004-09-01T02:00:00Z,27.9396,-96.8429,2.0,226.6632486,21.4343696,-99999.0,'11111222,11111222,99999999' 
TABS,ioos:station:wmo:42048:1,2004-09-01T02:30:00Z,27.9396,-96.8429,2.0,225.2603907,20.20224987,-99999.0,'11111222,11111222,99999999' 
TABS,ioos:station:wmo:42048:1,2004-09-01T03:00:00Z,27.9396,-96.8429,2.0,228.2649348,22.09760621,-99999.0,'11111222,11111222,99999999' 
TABS,ioos:station:wmo:42048:1,2004-09-01T03:30:00Z,27.9396,-96.8429,2.0,229.8562769,22.80120392,-99999.0,'11111222,11111222,99999999' 
TABS,ioos:station:wmo:42048:1,2004-09-01T04:00:00Z,27.9396,-96.8429,2.0,229.5707501,22.71380637,-99999.0,'11111222,11111222,99999999' 
TABS,ioos:station:wmo:42048:1,2004-09-01T04:30:00Z,27.9396,-96.8429,2.0,228.8418662,23.00439089,-99999.0,'11111222,11111222,99999999' 
TABS,ioos:station:wmo:42048:1,2004-09-01T05:00:00Z,27.9396,-96.8429,2.0,232.9339035,22.2321299,-99999.0,'11111222,11111222,99999999' 
TABS,ioos:station:wmo:42048:1,2004-09-01T05:30:00Z,27.9396,-96.8429,2.0,229.3277045,22.86231834,-99999.0,'11111222,11111222,99999999' 
TABS,ioos:station:wmo:42048:1,2004-09-01T06:00:00Z,27.9396,-96.8429,2.0,233.8414782,21.57566453,-99999.0,'11111222,11111222,99999999' 
TABS,ioos:station:wmo:42048:1,2004-09-01T06:30:00Z,27.9396,-96.8429,2.0,230.4075558,21.30804543,-99999.0,'11111222,11111222,99999999' 
TABS,ioos:station:wmo:42048:1,2004-09-01T07:00:00Z,27.9396,-96.8429,2.0,238.1485213,17.71792877,-99999.0,'11111222,11111222,99999999' 
TABS,ioos:station:wmo:42048:1,2004-09-01T07:30:00Z,27.9396,-96.8429,2.0,224.5331868,19.10665853,-99999.0,'11111222,11111222,99999999' 
TABS,ioos:station:wmo:42048:1,2004-09-01T08:00:00Z,27.9396,-96.8429,2.0,227.851993,18.04650936,-99999.0,'11111222,11111222,99999999' 
TABS,ioos:station:wmo:42048:1,2004-09-01T08:30:00Z,27.9396,-96.8429,2.0,221.6678841,19.22337119,-99999.0,'11111222,11111222,99999999' 
TABS,ioos:station:wmo:42048:1,2004-09-01T09:00:00Z,27.9396,-96.8429,2.0,228.0264128,15.26651892,-99999.0,'11111222,11111222,99999999' 
TABS,ioos:station:wmo:42048:1,2004-09-01T09:30:00Z,27.9396,-96.8429,2.0,220.6441779,15.82833535,-99999.0,'11111222,11111222,99999999' 
TABS,ioos:station:wmo:42048:1,2004-09-01T10:00:00Z,27.9396,-96.8429,2.0,219.4917766,15.91266163,-99999.0,'11111222,11111222,99999999' 
TABS,ioos:station:wmo:42048:1,2004-09-01T10:30:00Z,27.9396,-96.8429,2.0,198.7521871,14.83763458,-99999.0,'11111222,11111222,99999999' 
TABS,ioos:station:wmo:42048:1,2004-09-01T11:00:00Z,27.9396,-96.8429,2.0,213.0692721,19.97592551,-99999.0,'11111222,11111222,99999999' 
TABS,ioos:station:wmo:42048:1,2004-09-01T11:30:00Z,27.9396,-96.8429,2.0,213.7714444,23.35012848,-99999.0,'11111222,11111222,99999999' 
TABS,ioos:station:wmo:42048:1,2004-09-01T12:00:00Z,27.9396,-96.8429,2.0,220.802778,24.63802955,-99999.0,'11111222,11111222,99999999' 
TABS,ioos:station:wmo:42048:1,2004-09-01T12:30:00Z,27.9396,-96.8429,2.0,213.13164,25.33990726,-99999.0,'11111222,11111222,99999999' 
TABS,ioos:station:wmo:42048:1,2004-09-01T13:00:00Z,27.9396,-96.8429,2.0,216.3752471,24.80292321,-99999.0,'11111222,11111222,99999999' 
TABS,ioos:station:wmo:42048:1,2004-09-01T13:30:00Z,27.9396,-96.8429,2.0,214.7345679,29.20427366,-99999.0,'11111222,11111222,99999999' 
TABS,ioos:station:wmo:42048:1,2004-09-01T14:00:00Z,27.9396,-96.8429,2.0,208.0667238,24.56941188,-99999.0,'11111222,11111222,99999999' 
TABS,ioos:station:wmo:42048:1,2004-09-01T14:30:00Z,27.9396,-96.8429,2.0,205.9902745,24.53089888,-99999.0,'11111222,11111222,99999999' 
TABS,ioos:station:wmo:42048:1,2004-09-01T15:00:00Z,27.9396,-96.8429,2.0,206.5763934,22.06104712,-99999.0,'11111222,11111222,99999999' 
TABS,ioos:station:wmo:42048:1,2004-09-01T15:30:00Z,27.9396,-96.8429,2.0,212.1273334,25.83644712,-99999.0,'11111222,11111222,99999999' 
TABS,ioos:station:wmo:42048:1,2004-09-01T16:00:00Z,27.9396,-96.8429,2.0,212.5539912,26.44498062,-99999.0,'11111222,11111222,99999999' 
TABS,ioos:station:wmo:42048:1,2004-09-01T16:30:00Z,27.9396,-96.8429,2.0,224.6413595,32.78918267,-99999.0,'11111222,11111222,99999999' 
TABS,ioos:station:wmo:42048:1,2004-09-01T17:00:00Z,27.9396,-96.8429,2.0,227.7987704,37.06833689,-99999.0,'11111222,11111222,99999999' 
TABS,ioos:station:wmo:42048:1,2004-09-01T17:30:00Z,27.9396,-96.8429,2.0,230.2150154,38.58391634,-99999.0,'11111222,11111222,99999999' 
TABS,ioos:station:wmo:42048:1,2004-09-01T18:00:00Z,27.9396,-96.8429,2.0,230.0786799,29.87234507,-99999.0,'11111222,11111222,99999999' 
TABS,ioos:station:wmo:42048:1,2004-09-01T18:30:00Z,27.9396,-96.8429,2.0,225.9797993,34.72402338,-99999.0,'11111222,11111222,99999999' 
TABS,ioos:station:wmo:42048:1,2004-09-01T19:00:00Z,27.9396,-96.8429,2.0,232.495201,32.68600465,-99999.0,'11111222,11111222,99999999' 
TABS,ioos:station:wmo:42048:1,2004-09-01T19:30:00Z,27.9396,-96.8429,2.0,225.5166457,27.42978855,-99999.0,'11111222,11111222,99999999' 
TABS,ioos:station:wmo:42048:1,2004-09-01T20:00:00Z,27.9396,-96.8429,2.0,232.6308027,26.4110015,-99999.0,'11111222,11111222,99999999' 
TABS,ioos:station:wmo:42048:1,2004-09-01T20:30:00Z,27.9396,-96.8429,2.0,227.290289,28.8376438,-99999.0,'11111222,11111222,99999999' 
TABS,ioos:station:wmo:42048:1,2004-09-01T21:00:00Z,27.9396,-96.8429,2.0,228.330448,29.33083872,-99999.0,'11111222,11111222,99999999' 
TABS,ioos:station:wmo:42048:1,2004-09-01T21:30:00Z,27.9396,-96.8429,2.0,229.3377234,25.61407816,-99999.0,'11111222,11111222,99999999' 
TABS,ioos:station:wmo:42048:1,2004-09-01T22:00:00Z,27.9396,-96.8429,2.0,217.6956896,23.5824511,-99999.0,'11111222,11111222,99999999' 
TABS,ioos:station:wmo:42048:1,2004-09-01T22:30:00Z,27.9396,-96.8429,2.0,221.781563,24.05835614,-99999.0,'11111222,11111222,99999999' 
TABS,ioos:station:wmo:42048:1,2004-09-01T23:00:00Z,27.9396,-96.8429,2.0,213.7551842,21.86629598,-99999.0,'11111222,11111222,99999999' 
TABS,ioos:station:wmo:42048:1,2004-09-01T23:30:00Z,27.9396,-96.8429,2.0,218.704931,21.66911627,-99999.0,'11111222,11111222,99999999' 
TABS,ioos:station:wmo:42048:1,2004-09-02T00:00:00Z,27.9396,-96.8429,2.0,211.6472899,25.29098258,-99999.0,'11111222,11111222,99999999' 
TABS,ioos:station:wmo:42048:1,2004-09-02T00:30:00Z,27.9396,-96.8429,2.0,217.6445829,28.39059703,-99999.0,'11111222,11111222,99999999' 
TABS,ioos:station:wmo:42048:1,2004-09-02T01:00:00Z,27.9396,-96.8429,2.0,225.0306048,26.20538113,-99999.0,'11111222,11111222,99999999' 
TABS,ioos:station:wmo:42048:1,2004-09-02T01:30:00Z,27.9396,-96.8429,2.0,224.0245334,23.2671829,-99999.0,'11111222,11111222,99999999' 
TABS,ioos:station:wmo:42048:1,2004-09-02T02:00:00Z,27.9396,-96.8429,2.0,227.4820452,24.48887503,-99999.0,'11111222,11111222,99999999' 
TABS,ioos:station:wmo:42048:1,2004-09-02T02:30:00Z,27.9396,-96.8429,2.0,213.4842406,22.4211262,-99999.0,'11111222,11111222,99999999' 
TABS,ioos:station:wmo:42048:1,2004-09-02T03:00:00Z,27.9396,-96.8429,2.0,215.4663533,25.3175927,-99999.0,'11111222,11111222,99999999' 
TABS,ioos:station:wmo:42048:1,2004-09-02T03:30:00Z,27.9396,-96.8429,2.0,220.7479636,25.37010051,-99999.0,'11111222,11111222,99999999' 
TABS,ioos:station:wmo:42048:1,2004-09-02T04:00:00Z,27.9396,-96.8429,2.0,218.9493177,25.62688042,-99999.0,'11111222,11111222,99999999' 
TABS,ioos:station:wmo:42048:1,2004-09-02T04:30:00Z,27.9396,-96.8429,2.0,212.8445255,24.81721378,-99999.0,'11111222,11111222,99999999' 
TABS,ioos:station:wmo:42048:1,2004-09-02T05:00:00Z,27.9396,-96.8429,2.0,224.4526388,22.21830777,-99999.0,'11111222,11111222,99999999' 
TABS,ioos:station:wmo:42048:1,2004-09-02T05:30:00Z,27.9396,-96.8429,2.0,217.5053479,21.08929823,-99999.0,'11111222,11111222,99999999' 
TABS,ioos:station:wmo:42048:1,2004-09-02T06:00:00Z,27.9396,-96.8429,2.0,210.8021055,20.09456892,-99999.0,'11111222,11111222,99999999' 
TABS,ioos:station:wmo:42048:1,2004-09-02T06:30:00Z,27.9396,-96.8429,2.0,216.0946443,23.06811002,-99999.0,'11111222,11111222,99999999' 
TABS,ioos:station:wmo:42048:1,2004-09-02T07:00:00Z,27.9396,-96.8429,2.0,212.4900449,20.66433885,-99999.0,'11111222,11111222,99999999' 
TABS,ioos:station:wmo:42048:1,2004-09-02T07:30:00Z,27.9396,-96.8429,2.0,225.8126374,18.93822589,-99999.0,'11111222,11111222,99999999' 
TABS,ioos:station:wmo:42048:1,2004-09-02T08:00:00Z,27.9396,-96.8429,2.0,219.9288006,15.44000324,-99999.0,'11111222,11111222,99999999' 
TABS,ioos:station:wmo:42048:1,2004-09-02T08:30:00Z,27.9396,-96.8429,2.0,220.802918,16.61914559,-99999.0,'11111222,11111222,99999999' 
TABS,ioos:station:wmo:42048:1,2004-09-02T09:00:00Z,27.9396,-96.8429,2.0,208.1832667,18.20885773,-99999.0,'11111222,11111222,99999999' 
TABS,ioos:station:wmo:42048:1,2004-09-02T09:30:00Z,27.9396,-96.8429,2.0,214.5305345,17.20033139,-99999.0,'11111222,11111222,99999999' 
TABS,ioos:station:wmo:42048:1,2004-09-02T10:00:00Z,27.9396,-96.8429,2.0,213.407536,19.14293603,-99999.0,'11111222,11111222,99999999' 
TABS,ioos:station:wmo:42048:1,2004-09-02T10:30:00Z,27.9396,-96.8429,2.0,207.9451294,22.27770186,-99999.0,'11111222,11111222,99999999' 
TABS,ioos:station:wmo:42048:1,2004-09-02T11:00:00Z,27.9396,-96.8429,2.0,205.8690114,21.36049625,-99999.0,'11111222,11111222,99999999' 
TABS,ioos:station:wmo:42048:1,2004-09-02T11:30:00Z,27.9396,-96.8429,2.0,210.1070712,20.19449925,-99999.0,'11111222,11111222,99999999' 
TABS,ioos:station:wmo:42048:1,2004-09-02T12:00:00Z,27.9396,-96.8429,2.0,214.3226696,19.08285094,-99999.0,'11111222,11111222,99999999' 
TABS,ioos:station:wmo:42048:1,2004-09-02T12:30:00Z,27.9396,-96.8429,2.0,212.571073,14.9159579,-99999.0,'11111222,11111222,99999999' 
TABS,ioos:station:wmo:42048:1,2004-09-02T13:00:00Z,27.9396,-96.8429,2.0,213.185058,18.89104814,-99999.0,'11111222,11111222,99999999' 
TABS,ioos:station:wmo:42048:1,2004-09-02T13:30:00Z,27.9396,-96.8429,2.0,210.5910838,22.1649453,-99999.0,'11111222,11111222,99999999' 
TABS,ioos:station:wmo:42048:1,2004-09-02T14:00:00Z,27.9396,-96.8429,2.0,214.4666445,22.70596618,-99999.0,'11111222,11111222,99999999' 
TABS,ioos:station:wmo:42048:1,2004-09-02T14:30:00Z,27.9396,-96.8429,2.0,218.9859748,22.47533092,-99999.0,'11111222,11111222,99999999' 
TABS,ioos:station:wmo:42048:1,2004-09-02T15:00:00Z,27.9396,-96.8429,2.0,221.4307743,20.44675524,-99999.0,'11111222,11111222,99999999' 
TABS,ioos:station:wmo:42048:1,2004-09-02T15:30:00Z,27.9396,-96.8429,2.0,215.249626,21.29451103,-99999.0,'11111222,11111222,99999999' 
TABS,ioos:station:wmo:42048:1,2004-09-02T16:00:00Z,27.9396,-96.8429,2.0,221.2379017,23.71087936,-99999.0,'11111222,11111222,99999999' 
TABS,ioos:station:wmo:42048:1,2004-09-02T16:30:00Z,27.9396,-96.8429,2.0,217.6419537,26.55841298,-99999.0,'11111222,11111222,99999999' 
TABS,ioos:station:wmo:42048:1,2004-09-02T17:00:00Z,27.9396,-96.8429,2.0,225.5886536,24.76418785,-99999.0,'11111222,11111222,99999999' 
TABS,ioos:station:wmo:42048:1,2004-09-02T17:30:00Z,27.9396,-96.8429,2.0,221.5209473,23.30675868,-99999.0,'11111222,11111222,99999999' 
TABS,ioos:station:wmo:42048:1,2004-09-02T18:00:00Z,27.9396,-96.8429,2.0,225.620598,21.53266588,-99999.0,'11111222,11111222,99999999' 
TABS,ioos:station:wmo:42048:1,2004-09-02T18:30:00Z,27.9396,-96.8429,2.0,225.8189942,20.27482429,-99999.0,'11111222,11111222,99999999' 
TABS,ioos:station:wmo:42048:1,2004-09-02T19:00:00Z,27.9396,-96.8429,2.0,223.1057636,24.81886379,-99999.0,'11111222,11111222,99999999' 
TABS,ioos:station:wmo:42048:1,2004-09-02T19:30:00Z,27.9396,-96.8429,2.0,230.0880501,23.51913476,-99999.0,'11111222,11111222,99999999' 
TABS,ioos:station:wmo:42048:1,2004-09-02T20:00:00Z,27.9396,-96.8429,2.0,246.0185704,21.9223402,-99999.0,'11111222,11111222,99999999' 
TABS,ioos:station:wmo:42048:1,2004-09-02T20:30:00Z,27.9396,-96.8429,2.0,252.9558449,25.00833861,-99999.0,'11111222,11111222,99999999' 
TABS,ioos:station:wmo:42048:1,2004-09-02T21:00:00Z,27.9396,-96.8429,2.0,256.0428777,22.72075923,-99999.0,'11111222,11111222,99999999' 
TABS,ioos:station:wmo:42048:1,2004-09-02T21:30:00Z,27.9396,-96.8429,2.0,260.6485866,23.69487075,-99999.0,'11111222,11111222,99999999' 
TABS,ioos:station:wmo:42048:1,2004-09-02T22:00:00Z,27.9396,-96.8429,2.0,258.9998469,20.64937045,-99999.0,'11111222,11111222,99999999' 
TABS,ioos:station:wmo:42048:1,2004-09-02T22:30:00Z,27.9396,-96.8429,2.0,256.3255519,21.86987426,-99999.0,'11111222,11111222,99999999' 
TABS,ioos:station:wmo:42048:1,2004-09-02T23:00:00Z,27.9396,-96.8429,2.0,247.016439,20.25809961,-99999.0,'11111222,11111222,99999999' 
TABS,ioos:station:wmo:42048:1,2004-09-02T23:30:00Z,27.9396,-96.8429,2.0,242.0492022,19.6071033,-99999.0,'11111222,11111222,99999999' 
TABS,ioos:station:wmo:42048:1,2004-09-03T00:00:00Z,27.9396,-96.8429,2.0,240.3523084,18.21452717,-99999.0,'11111222,11111222,99999999' 
TABS,ioos:station:wmo:42048:1,2004-09-03T00:30:00Z,27.9396,-96.8429,2.0,247.7332575,19.45037018,-99999.0,'11111222,11111222,99999999' 
TABS,ioos:station:wmo:42048:1,2004-09-03T01:00:00Z,27.9396,-96.8429,2.0,242.8918494,18.41260981,-99999.0,'11111222,11111222,99999999' 
TABS,ioos:station:wmo:42048:1,2004-09-03T01:30:00Z,27.9396,-96.8429,2.0,242.6232284,21.15979679,-99999.0,'11111222,11111222,99999999' 
TABS,ioos:station:wmo:42048:1,2004-09-03T02:00:00Z,27.9396,-96.8429,2.0,245.5484389,19.64157071,-99999.0,'11111222,11111222,99999999' 
TABS,ioos:station:wmo:42048:1,2004-09-03T02:30:00Z,27.9396,-96.8429,2.0,243.5750202,18.2463695,-99999.0,'11111222,11111222,99999999' 
TABS,ioos:station:wmo:42048:1,2004-09-03T03:00:00Z,27.9396,-96.8429,2.0,240.2547673,18.6238154,-99999.0,'11111222,11111222,99999999' 
TABS,ioos:station:wmo:42048:1,2004-09-03T03:30:00Z,27.9396,-96.8429,2.0,237.3603704,18.29986339,-99999.0,'11111222,11111222,99999999' 
TABS,ioos:station:wmo:42048:1,2004-09-03T04:00:00Z,27.9396,-96.8429,2.0,235.2569333,16.75754755,-99999.0,'11111222,11111222,99999999' 
TABS,ioos:station:wmo:42048:1,2004-09-03T04:30:00Z,27.9396,-96.8429,2.0,229.6963787,19.60318597,-99999.0,'11111222,11111222,99999999' 
TABS,ioos:station:wmo:42048:1,2004-09-03T05:00:00Z,27.9396,-96.8429,2.0,229.5769096,14.62009918,-99999.0,'11111222,11111222,99999999' 
TABS,ioos:station:wmo:42048:1,2004-09-03T05:30:00Z,27.9396,-96.8429,2.0,228.4762462,14.69243343,-99999.0,'11111222,11111222,99999999' 
TABS,ioos:station:wmo:42048:1,2004-09-03T06:00:00Z,27.9396,-96.8429,2.0,233.2938206,13.97005727,-99999.0,'11111222,11111222,99999999' 
TABS,ioos:station:wmo:42048:1,2004-09-03T06:30:00Z,27.9396,-96.8429,2.0,234.8772284,14.75686281,-99999.0,'11111222,11111222,99999999' 
TABS,ioos:station:wmo:42048:1,2004-09-03T07:00:00Z,27.9396,-96.8429,2.0,223.8711791,12.20703076,-99999.0,'11111222,11111222,99999999' 
TABS,ioos:station:wmo:42048:1,2004-09-03T07:30:00Z,27.9396,-96.8429,2.0,225.2980964,13.57663434,-99999.0,'11111222,11111222,99999999' 
TABS,ioos:station:wmo:42048:1,2004-09-03T08:00:00Z,27.9396,-96.8429,2.0,225.5688276,12.81340704,-99999.0,'11111222,11111222,99999999' 
TABS,ioos:station:wmo:42048:1,2004-09-03T08:30:00Z,27.9396,-96.8429,2.0,248.5709565,15.98499296,-99999.0,'11111222,11111222,99999999' 
TABS,ioos:station:wmo:42048:1,2004-09-03T09:00:00Z,27.9396,-96.8429,2.0,243.4525398,14.27505867,-99999.0,'11111222,11111222,99999999' 
TABS,ioos:station:wmo:42048:1,2004-09-03T09:30:00Z,27.9396,-96.8429,2.0,227.2778193,12.98567287,-99999.0,'11111222,11111222,99999999' 
TABS,ioos:station:wmo:42048:1,2004-09-03T10:00:00Z,27.9396,-96.8429,2.0,231.1482614,12.60954004,-99999.0,'11111222,11111222,99999999' 
TABS,ioos:station:wmo:42048:1,2004-09-03T10:30:00Z,27.9396,-96.8429,2.0,222.0468402,12.07927978,-99999.0,'11111222,11111222,99999999' 
TABS,ioos:station:wmo:42048:1,2004-09-03T11:00:00Z,27.9396,-96.8429,2.0,205.7658871,11.2261525,-99999.0,'11111222,11111222,99999999' 
TABS,ioos:station:wmo:42048:1,2004-09-03T11:30:00Z,27.9396,-96.8429,2.0,214.8904095,10.19208026,-99999.0,'11111222,11111222,99999999' 
TABS,ioos:station:wmo:42048:1,2004-09-03T12:00:00Z,27.9396,-96.8429,2.0,216.4738801,12.16229008,-99999.0,'11111222,11111222,99999999' 
TABS,ioos:station:wmo:42048:1,2004-09-03T12:30:00Z,27.9396,-96.8429,2.0,209.966104,12.51271753,-99999.0,'11111222,11111222,99999999' 
TABS,ioos:station:wmo:42048:1,2004-09-03T13:00:00Z,27.9396,-96.8429,2.0,217.1498912,11.85614187,-99999.0,'11111222,11111222,99999999' 
TABS,ioos:station:wmo:42048:1,2004-09-03T13:30:00Z,27.9396,-96.8429,2.0,212.8526546,10.82058224,-99999.0,'11111222,11111222,99999999' 
TABS,ioos:station:wmo:42048:1,2004-09-03T14:00:00Z,27.9396,-96.8429,2.0,214.5027424,10.75117203,-99999.0,'11111222,11111222,99999999' 
TABS,ioos:station:wmo:42048:1,2004-09-03T14:30:00Z,27.9396,-96.8429,2.0,210.1903151,17.53904216,-99999.0,'11111222,11111222,99999999' 
TABS,ioos:station:wmo:42048:1,2004-09-03T15:00:00Z,27.9396,-96.8429,2.0,209.8730766,16.04145255,-99999.0,'11111222,11111222,99999999' 
TABS,ioos:station:wmo:42048:1,2004-09-03T15:30:00Z,27.9396,-96.8429,2.0,212.5642719,18.35579745,-99999.0,'11111222,11111222,99999999' 
TABS,ioos:station:wmo:42048:1,2004-09-03T16:00:00Z,27.9396,-96.8429,2.0,218.0526998,19.76021255,-99999.0,'11111222,11111222,99999999' 
TABS,ioos:station:wmo:42048:1,2004-09-03T16:30:00Z,27.9396,-96.8429,2.0,223.0091125,23.20710667,-99999.0,'11111222,11111222,99999999' 
TABS,ioos:station:wmo:42048:1,2004-09-03T17:00:00Z,27.9396,-96.8429,2.0,223.4592978,19.72833749,-99999.0,'11111222,11111222,99999999' 
TABS,ioos:station:wmo:42048:1,2004-09-03T17:30:00Z,27.9396,-96.8429,2.0,226.1260299,20.86368136,-99999.0,'11111222,11111222,99999999' 
TABS,ioos:station:wmo:42048:1,2004-09-03T18:00:00Z,27.9396,-96.8429,2.0,219.7539963,20.03137789,-99999.0,'11111222,11111222,99999999' 
TABS,ioos:station:wmo:42048:1,2004-09-03T18:30:00Z,27.9396,-96.8429,2.0,230.1578081,20.21318629,-99999.0,'11111222,11111222,99999999' 
TABS,ioos:station:wmo:42048:1,2004-09-03T19:00:00Z,27.9396,-96.8429,2.0,233.9099443,20.26987913,-99999.0,'11111222,11111222,99999999' 
TABS,ioos:station:wmo:42048:1,2004-09-03T19:30:00Z,27.9396,-96.8429,2.0,231.8009832,20.18142711,-99999.0,'11111222,11111222,99999999' 
TABS,ioos:station:wmo:42048:1,2004-09-03T20:00:00Z,27.9396,-96.8429,2.0,220.2065387,19.37885704,-99999.0,'11111222,11111222,99999999' 
TABS,ioos:station:wmo:42048:1,2004-09-03T20:30:00Z,27.9396,-96.8429,2.0,226.700669,21.91582533,-99999.0,'11111222,11111222,99999999' 
TABS,ioos:station:wmo:42048:1,2004-09-03T21:00:00Z,27.9396,-96.8429,2.0,218.0077753,19.63387379,-99999.0,'11111222,11111222,99999999' 
TABS,ioos:station:wmo:42048:1,2004-09-03T21:30:00Z,27.9396,-96.8429,2.0,234.9305171,19.47561809,-99999.0,'11111222,11111222,99999999' 
TABS,ioos:station:wmo:42048:1,2004-09-03T22:00:00Z,27.9396,-96.8429,2.0,235.2149555,19.01859353,-99999.0,'11111222,11111222,99999999' 
TABS,ioos:station:wmo:42048:1,2004-09-03T22:30:00Z,27.9396,-96.8429,2.0,246.1951351,21.35687243,-99999.0,'11111222,11111222,99999999' 
TABS,ioos:station:wmo:42048:1,2004-09-03T23:00:00Z,27.9396,-96.8429,2.0,249.8111959,24.07937084,-99999.0,'11111222,11111222,99999999' 
TABS,ioos:station:wmo:42048:1,2004-09-03T23:30:00Z,27.9396,-96.8429,2.0,245.7526235,25.7626959,-99999.0,'11111222,11111222,99999999' 
TABS,ioos:station:wmo:42048:1,2004-09-04T00:00:00Z,27.9396,-96.8429,2.0,233.9549025,21.80426105,-99999.0,'11111222,11111222,99999999' 
TABS,ioos:station:wmo:42048:1,2004-09-04T00:30:00Z,27.9396,-96.8429,2.0,233.703611,18.97095148,-99999.0,'11111222,11111222,99999999' 
TABS,ioos:station:wmo:42048:1,2004-09-04T01:00:00Z,27.9396,-96.8429,2.0,231.6888395,17.17943247,-99999.0,'11111222,11111222,99999999' 
TABS,ioos:station:wmo:42048:1,2004-09-04T01:30:00Z,27.9396,-96.8429,2.0,219.8615777,18.23886235,-99999.0,'11111222,11111222,99999999' 
TABS,ioos:station:wmo:42048:1,2004-09-04T02:00:00Z,27.9396,-96.8429,2.0,223.7112452,16.35244324,-99999.0,'11111222,11111222,99999999' 
TABS,ioos:station:wmo:42048:1,2004-09-04T02:30:00Z,27.9396,-96.8429,2.0,221.8315713,17.27273285,-99999.0,'11111222,11111222,99999999' 
TABS,ioos:station:wmo:42048:1,2004-09-04T03:00:00Z,27.9396,-96.8429,2.0,224.3283721,17.50209416,-99999.0,'11111222,11111222,99999999' 
TABS,ioos:station:wmo:42048:1,2004-09-04T03:30:00Z,27.9396,-96.8429,2.0,228.8381787,19.85767862,-99999.0,'11111222,11111222,99999999' 
TABS,ioos:station:wmo:42048:1,2004-09-04T04:00:00Z,27.9396,-96.8429,2.0,236.5737106,16.84642395,-99999.0,'11111222,11111222,99999999' 
TABS,ioos:station:wmo:42048:1,2004-09-04T04:30:00Z,27.9396,-96.8429,2.0,236.222691,16.45797375,-99999.0,'11111222,11111222,99999999' 
TABS,ioos:station:wmo:42048:1,2004-09-04T05:00:00Z,27.9396,-96.8429,2.0,234.2595907,14.80887909,-99999.0,'11111222,11111222,99999999' 
TABS,ioos:station:wmo:42048:1,2004-09-04T05:30:00Z,27.9396,-96.8429,2.0,228.6006299,17.45049283,-99999.0,'11111222,11111222,99999999' 
TABS,ioos:station:wmo:42048:1,2004-09-04T06:00:00Z,27.9396,-96.8429,2.0,233.9512228,17.99584952,-99999.0,'11111222,11111222,99999999' 
TABS,ioos:station:wmo:42048:1,2004-09-04T06:30:00Z,27.9396,-96.8429,2.0,229.4819142,13.39113139,-99999.0,'11111222,11111222,99999999' 
TABS,ioos:station:wmo:42048:1,2004-09-04T07:00:00Z,27.9396,-96.8429,2.0,230.853524,14.35132398,-99999.0,'11111222,11111222,99999999' 
TABS,ioos:station:wmo:42048:1,2004-09-04T07:30:00Z,27.9396,-96.8429,2.0,227.0906307,14.9228181,-99999.0,'11111222,11111222,99999999' 
TABS,ioos:station:wmo:42048:1,2004-09-04T08:00:00Z,27.9396,-96.8429,2.0,225.1692979,11.94308587,-99999.0,'11111222,11111222,99999999' 
TABS,ioos:station:wmo:42048:1,2004-09-04T08:30:00Z,27.9396,-96.8429,2.0,211.9961089,13.51285314,-99999.0,'11111222,11111222,99999999' 
TABS,ioos:station:wmo:42048:1,2004-09-04T09:00:00Z,27.9396,-96.8429,2.0,223.2798737,13.90091004,-99999.0,'11111222,11111222,99999999' 
TABS,ioos:station:wmo:42048:1,2004-09-04T09:30:00Z,27.9396,-96.8429,2.0,220.9506789,12.61799509,-99999.0,'11111222,11111222,99999999' 
TABS,ioos:station:wmo:42048:1,2004-09-04T10:00:00Z,27.9396,-96.8429,2.0,219.2552051,14.2703679,-99999.0,'11111222,11111222,99999999' 
TABS,ioos:station:wmo:42048:1,2004-09-04T10:30:00Z,27.9396,-96.8429,2.0,217.6691514,12.46921409,-99999.0,'11111222,11111222,99999999' 
TABS,ioos:station:wmo:42048:1,2004-09-04T11:00:00Z,27.9396,-96.8429,2.0,210.856529,14.70088433,-99999.0,'11111222,11111222,99999999' 
TABS,ioos:station:wmo:42048:1,2004-09-04T11:30:00Z,27.9396,-96.8429,2.0,207.7136535,13.15966945,-99999.0,'11111222,11111222,99999999' 
TABS,ioos:station:wmo:42048:1,2004-09-04T12:00:00Z,27.9396,-96.8429,2.0,214.8300665,10.45262168,-99999.0,'11111222,11111222,99999999' 
TABS,ioos:station:wmo:42048:1,2004-09-04T12:30:00Z,27.9396,-96.8429,2.0,219.5058284,10.04463041,-99999.0,'11111222,11111222,99999999' 
TABS,ioos:station:wmo:42048:1,2004-09-04T13:00:00Z,27.9396,-96.8429,2.0,208.1476751,12.95177594,-99999.0,'11111222,11111222,99999999' 
TABS,ioos:station:wmo:42048:1,2004-09-04T13:30:00Z,27.9396,-96.8429,2.0,217.834997,11.39561758,-99999.0,'11111222,11111222,99999999' 
TABS,ioos:station:wmo:42048:1,2004-09-04T14:00:00Z,27.9396,-96.8429,2.0,209.6364709,10.51568353,-99999.0,'11111222,11111222,99999999' 
TABS,ioos:station:wmo:42048:1,2004-09-04T14:30:00Z,27.9396,-96.8429,2.0,213.1475644,11.43010936,-99999.0,'11111222,11111222,99999999' 
TABS,ioos:station:wmo:42048:1,2004-09-04T15:00:00Z,27.9396,-96.8429,2.0,223.7650555,13.12694938,-99999.0,'11111222,11111222,99999999' 
TABS,ioos:station:wmo:42048:1,2004-09-04T15:30:00Z,27.9396,-96.8429,2.0,217.1316933,12.24212808,-99999.0,'11111222,11111222,99999999' 
TABS,ioos:station:wmo:42048:1,2004-09-04T16:00:00Z,27.9396,-96.8429,2.0,218.8510324,12.14726307,-99999.0,'11111222,11111222,99999999' 